Hourly Data Report for September 25, 2017

All times are specified in Local Standard Time (LST). Add 1 hour to adjust for Daylight Saving Time where and when it is observed.

ST. STEPHEN
NEW BRUNSWICK

45°12'36.600" N
67°15'10.300" W
26.10 m
8104935
71607
WSS

Download Data

Hourly Data (September 2017)
Hourly Data Report for September 25, 2017
Temp Definition
°C
Dew Point Temp Definition
°C
Rel Hum Definition
%
Wind Dir Definition
10's deg

Wind Spd Definition
km/h
Visibility Definition
km
Stn Press Definition
kPa
Hmdx Definition


Wind Chill Definition


Weather Definition


TIME
00:00 18.2 17.6 96 0 1   101.27     LegendNANA
01:00 17.4 16.8 96 6 5   101.34     LegendNANA
02:00 17.4 16.9 97 6 3   101.35     LegendNANA
03:00 17.6 17.0 96 7 1   101.36     LegendNANA
04:00 16.5 15.8 96   0   101.40     LegendNANA
05:00 16.0 15.4 96 0 1   101.45     LegendNANA
06:00 15.0 14.4 96 15 1   101.51     LegendNANA
07:00 14.8 14.3 97   0   101.58     LegendNANA
08:00 17.8 16.2 91   0   101.62     LegendNANA
09:00 20.3 15.9 76 11 5   101.65 25   LegendNANA
10:00 21.9 16.3 70 10 6   101.65 27   LegendNANA
11:00 23.3 16.8 67 14 7   101.63 28   LegendNANA
12:00 23.4 15.9 63 15 8   101.59 28   LegendNANA
13:00 24.6 16.3 60 13 7   101.55 29   LegendNANA
14:00 24.7 16.9 62 7 8   101.50 30   LegendNANA
15:00 26.1 17.4 59 10 6   101.44 32   LegendNANA
16:00 24.8 16.8 61 9 8   101.40 30   LegendNANA
17:00 22.4 16.2 68 8 8   101.39 27   LegendNANA
18:00 19.9 15.5 76 9 7   101.39     LegendNANA
19:00 17.6 14.9 84 9 5   101.40     LegendNANA
20:00 16.5 14.6 89 9 4   101.42     LegendNANA
21:00 15.8 14.5 92 10 2   101.41     LegendNANA
22:00 15.2 14.1 93 11 3   101.38     LegendNANA
23:00 14.6 13.6 94 11 2   101.34     LegendNANA

Notes on Data Quality.

Legend

  • E = Estimated
  • M = Missing
  • NA = Not Available
  • ‡ = Partner data that is not subject to review by the National Climate Archives
Date modified: